Regional Weather Roundup
Issued by NWS Bismarck, ND

Home | Current Version | Previous Version | Text Only | Print | Product List | Glossary On
Versions: 1 2 3 4 5 6 7 8 9 10 11 12 13 14 15 16 17 18 19 20 21 22 23 24 25 26 27 28 29 30 31 32 33 34 35 36 37 38 39 40 41 42 43 44 45 46 47 48 49 50
000
ASUS43 KBIS 291010
RWRBIS

NWR BROADCAST TEXT
NATIONAL WEATHER SERVICE BISMARCK ND
500 AM CDT MON MAY 29 2017

NOTE: "FAIR" INDICATES FEW OR NO CLOUDS BELOW 12,000 FEET WITH NO
SIGNIFICANT WEATHER AND/OR OBSTRUCTIONS TO VISIBILITY.


CITY           SKY/WX    TMP DP  RH WIND       PRES   REMARKS
WILLISTON      FAIR      47  38  71 NW13      30.10S
MINOT          CLOUDY    52  43  71 NW17G26   29.98R
MINOT AFB      CLOUDY    51  43  76 NW18      29.98R
BISMARCK       CLOUDY    51  43  74 NW13G18   30.00R
DICKINSON      FAIR      39  35  86 NW9       30.07R
GARRISON         N/A     45  42  89 NW17      30.00R
HETTINGER ARPT FAIR      35  32  88 NW6       30.10R
JAMESTOWN      LGT RAIN  50  47  89 NW16G24   29.88R
HAZEN          FAIR      48  43  81 NW14      30.04R
LINTON           N/A     45  45 100 NW12      30.00R
MANDAN         CLOUDY    48  43  81 NW15G21   30.00R
STANLEY        CLOUDY    48  48 100 NW10      30.06S
TIOGA          FAIR      45  45 100 NW12      30.08S
WATFORD CITY   FAIR      45  39  81 W6        30.09S
$$

CITY           SKY/WX    TMP DP  RH WIND       PRES   REMARKS
GRAND FORKS    LGT RAIN  51  50  96 NW12      29.81R
GRAND FORKS AF LGT RAIN  50  50 100 N13       29.82S
DEVILS LAKE    CLOUDY    51  45  79 NW16G25   29.88R
FARGO          CLOUDY    52  48  86 NW15      29.81S
CAVALIER       CLOUDY    50  46  87 NW17G24   29.82R
GRAFTON        CLOUDY    50  50 100 NW14G20   29.83S
GWINNER        CLOUDY    52  48  87 MISG      29.86R
LANGDON        CLOUDY    48  48 100 NW16      29.85S
ROLLA          CLOUDY    48  46  93 NW24G30   29.91R
$$

CITY           SKY/WX    TMP DP  RH WIND       PRES   REMARKS
ABERDEEN       FAIR      48  40  73 NW14      29.91S
MOBRIDGE       FAIR      48  39  71 NW12      29.98R
BUFFALO          N/A     43  34  70 NW8       30.07R
RAPID CITY     FAIR      43  36  76 NW7       30.13R
GLASGOW        FAIR      40  31  70 N6        30.18S
SIDNEY         FAIR      44  35  70 NW13      30.13R
WOLF POINT     FAIR      45  35  68 NW8       30.17R
GLENDIVE       FAIR      42  30  62 NW13      30.16R
MILES CITY     FAIR      42  26  53 NW10      30.17R
BAKER          FAIR      41  31  67 NW3       30.15R
$$

CITY           SKY/WX    TMP DP  RH WIND       PRES   REMARKS
BILLINGS       FAIR      50  41  71 N6        30.23R
GREAT FALLS    FAIR      43  41  93 SW7       30.25S
REGINA         MOCLDY    46  41  81 NW13      30.11S
ESTEVAN        PTCLDY    45  43  93 W12       30.06R
$$





USA.gov is the U.S. government's official web portal to all federal, state and local government web resources and services.